Location: �Izbat ad Dagh?ymah
(31.0582°N, 31.7732°E)
Time: 19:52:50
(UTC+00:00)

Daily predictions for brighter satellites

Satellite Brightness Start Highest point End
(mag) Time Altitude Azimuth Time Altitude Azimuth Time Altitude Azimuth
Milstar 3 4.3 16:56:46 10° WSW 17:06:00 76° S 17:24:34 10° E
Cosmos 2285 Rocket 4.2 17:19:56 10° N 17:26:09 59° ENE 17:32:20 10° SSE
OAO 2 Rocket 3.5 17:21:34 10° WSW 17:26:50 84° NNW 17:32:10 10° ENE
Cosmos 1726 Rocket 3.6 17:24:49 10° N 17:29:16 87° E 17:33:44 10° S
DMSP B5D2-2 4.3 17:24:36 10° NNE 17:29:39 51° E 17:34:41 10° S
NOSS 3-1 (C) 4.4 17:23:34 10° NNW 17:31:40 80° WSW 17:40:35 10° SSE
MOS 1 Rocket 3.6 17:32:44 10° N 17:37:36 81° WNW 17:42:45 10° SSW
H-2A R/B 2.6 17:34:15 10° S 17:39:37 67° WSW 17:45:03 10° NNW
Cosmos 2227 4.2 17:40:17 10° NNW 17:46:04 80° ENE 17:51:47 10° SSE
USA 229 DEB 4.2 17:39:38 10° NW 17:47:04 71° WSW 17:54:43 10° SSE
USA 229 4.2 17:39:43 10° NW 17:47:09 72° WSW 17:54:49 10° SSE
SPOT 3 Rocket 4.2 17:43:03 10° SE 17:47:49 38° ENE 17:52:37 10° N
CZ-2C R/B 3.8 17:43:31 10° NNE 17:48:15 63° E 17:52:57 10° S
Cosmos 2298 Rocket 4.1 17:44:56 10° N 17:50:14 65° ENE 17:55:30 10° SSE
MONITOR-E 3.6 17:48:49 12° SSE 17:51:00 61° ENE 17:53:27 10° N
Resurs 01 Rocket 2.8 17:54:02 15° ESE 17:56:53 27° ENE 18:00:35 10° NNE
NOSS 3-1 (A) 4.3 17:49:19 10° NNW 17:57:27 84° WSW 18:06:20 10° SSE
Cosmos 2322 Rocket 3.2 17:54:47 10° SW 18:00:12 51° WNW 18:05:40 10° N
Meteor 1-21 Rocket 4.4 17:57:12 10° S 18:02:56 58° E 18:08:45 10° NNE
SL-08 RB Rocket 4.1 17:59:29 10° S 18:03:53 62° W 18:08:19 10° NNW
Cosmos 2237 4.2 17:59:44 10° SSW 18:05:27 89° WNW 18:11:13 10° NNE
Cosmos 1300 3.4 18:02:22 10° NNW 18:06:08 55° W 18:09:50 10° S
Cosmos 2058 Rocket 3.9 18:03:16 10° NNW 18:07:38 52° W 18:11:57 10° S
SL-24 R/B - RUBIN 2 4.2 18:04:34 10° SSW 18:10:10 70° ESE 18:16:29 10° NNE
Cosmos 1758 Rocket 4.1 18:10:05 18° SSE 18:13:02 40° E 18:17:14 10° NNE
Cosmos 1626 Rocket 4.2 18:09:42 10° SSW 18:14:04 59° W 18:18:28 10° N
USA 186 4.2 18:13:22 10° SSW 18:16:02 22° W 18:18:41 10° NW
IUS-9 SRM-1 2.9 18:17:09 10° WSW 18:19:05 18° SSW 18:19:05 18° SSW
Cosmos 1328 4.5 18:18:50 27° SE 18:20:06 35° E 18:23:43 10° NNE
SJ-6B 4.2 18:17:51 10° SSW 18:21:29 37° W 18:25:14 10° NNW
COSMOS 2428 3.4 18:19:57 21° SSE 18:22:49 32° ESE 18:27:47 10° NE
Cosmos 1745 Rocket 3.9 18:16:54 10° S 18:23:02 79° E 18:29:16 10° N
Cosmos 1455 2.9 18:21:21 10° NNE 18:24:55 35° E 18:25:46 31° ESE
Cosmos 2322 3.7 18:19:56 10° S 18:25:33 64° ESE 18:31:13 10° NNE
SL-08 ROCKET BODY 4.3 18:20:03 10° S 18:25:56 84° E 18:31:57 10° N
Resurs 1-3 3.7 18:26:38 18° S 18:29:47 73° WSW 18:34:11 10° NNW
DELTA 2 R/B (1) 3.5 18:24:20 10° WSW 18:29:54 85° SSE 18:35:30 10° ENE
Cosmos 1703 3.2 18:29:36 32° SSE 18:31:09 58° E 18:34:57 10° NNE
OAO 3 Rocket 3.6 18:27:04 10° WNW 18:31:55 61° N 18:35:05 21° E
Cosmos 773 Rocket 4.0 18:28:58 12° S 18:33:42 60° ESE 18:38:55 10° NNE
Cosmos 2237 Rocket 4.2 18:36:08 11° ENE 18:36:08 11° ENE 18:36:43 10° ENE
Cosmos 2219 Rocket 2.4 18:30:58 18° S 18:34:54 48° ESE 18:40:15 10° NNE
Cosmos 1953 Rocket 4.1 18:35:47 35° ESE 18:36:21 36° E 18:40:19 10° NNE
Cosmos 2333 4.1 18:31:50 10° SSW 18:37:26 80° ESE 18:43:06 10° NNE
Cosmos 2360 Rocket 3.2 18:32:02 10° SW 18:37:26 48° WNW 18:42:54 10° N
Cosmos 2263 Rocket 3.4 18:32:51 10° NW 18:37:56 37° WSW 18:42:43 11° S
BREEZE M DEB (TANK) 3.0 18:37:05 12° SSW 18:39:57 53° SE 18:48:44 10° NE
USA 215 3.1 18:34:04 10° NE 18:40:37 76° SE 18:47:08 10° SW
Cosmos 1461 3.6 18:41:08 10° NW 18:45:46 55° WSW 18:47:49 30° S
Atlas Centaur 2 2.3 18:42:17 10° W 18:47:56 85° S 18:52:05 26° E
Landsat 7 4.3 18:47:15 38° ESE 18:48:14 43° ENE 18:52:43 10° N
Cosmos 2333 Rocket 2.1 18:43:00 11° S 18:48:24 72° ESE 18:54:05 10° NNE
Cosmos 1825 Rocket 3.5 18:49:13 30° S 18:51:20 85° W 18:55:48 10° N
H-2A ROCKET BODY 3.2 18:49:55 10° W 18:54:38 65° S 19:06:45 21° ESE
BREEZE-M DEB (TANK) 4.0 18:47:37 10° NW 18:56:02 43° WSW 18:57:14 33° SSW
GMS 1 Rocket 4.1 18:54:09 10° W 18:57:48 65° SSW 18:57:48 65° SSW
ATLAS CENTAUR R/B 3.3 18:55:33 10° WNW 18:58:11 27° SW 18:59:12 25° SSW
Spot 2 Rocket 3.5 18:59:14 48° SE 19:00:28 66° ENE 19:05:31 10° N
GEOS 3 Rocket 4.5 18:57:11 10° NNE 19:02:25 53° NW 19:07:37 10° SW
Hubble Space Telescope 3.3 18:59:27 10° SW 18:59:39 11° SW 18:59:39 11° SW
Delta 2 Rocket 3.8 19:00:59 10° WNW 19:04:12 39° N 19:04:23 38° NNE
BREEZE-M DEB (TANK) 4.2 19:02:29 10° NNW 19:05:43 35° NE 19:06:37 32° ENE
IGS 5A 3.3 19:06:00 70° E 19:06:06 71° ENE 19:10:14 10° N
Cosmos 1709 Rocket 4.0 19:04:02 25° S 19:07:57 82° W 19:14:19 10° N
USA 81 4.1 19:08:10 54° ESE 19:08:46 58° E 19:13:56 10° NNE
OAO 2 Rocket 4.0 19:06:45 10° W 19:11:58 55° N 19:14:41 27° ENE
CARTOSAT-1 4.5 19:12:34 35° ENE 19:12:34 35° ENE 19:16:00 10° N
OAO 3 Copernicus 4.3 19:07:23 10° WSW 19:12:04 62° S 19:12:04 62° S
Meteor 2-10 Rocket 4.5 19:11:20 10° NNW 19:16:14 43° W 19:18:47 26° SSW
Cosmos 2278 Rocket 4.2 19:13:17 10° NNE 19:16:16 14° ENE 19:17:00 14° ENE
Meteor 1-11 4.2 19:14:36 38° SSW 19:16:53 81° W 19:22:33 10° N
Cosmos 1844 Rocket 2.5 19:13:26 10° NNW 19:19:01 86° ENE 19:19:57 63° SSE
SPOT 1/Viking Rocket 3.4 19:20:05 68° SE 19:20:41 79° ENE 19:25:51 10° N
Cosmos 2184 Rocket 4.3 19:24:07 45° E 19:24:14 45° E 19:30:09 10° NNE
Resurs 01 Rocket 3.7 19:31:37 16° SW 19:33:17 20° W 19:36:29 10° NW
Delta 7925 Rocket 4.4 19:25:10 10° W 19:33:34 53° SSW 19:34:15 51° S
Cosmos-2242 3.8 19:30:48 10° NNW 19:34:58 46° W 19:35:05 46° W
Cosmos 923 Rocket 4.5 19:36:06 48° NE 19:36:06 48° NE 19:40:10 10° NNE
Terra 2.7 19:36:04 39° NE 19:36:04 39° NE 19:39:45 10° N
Cosmos 1400 Rocket 3.9 19:33:09 10° NNW 19:36:24 39° WNW 19:36:24 39° WNW
Alouette 2 Rocket 4.4 19:34:00 10° NNW 19:38:23 62° W 19:39:15 54° SW
Cosmos 2221 4.3 19:36:13 10° NNE 19:38:23 23° NE 19:38:23 23° NE
Cosmos 2344 3.4 19:55:08 65° SE 19:55:48 67° ESE 20:03:14 10° NE
Meteor 2-17 Rocket 4.3 19:59:28 75° NE 19:59:28 75° NE 20:05:10 10° N
Cosmos 1980 3.7 20:00:03 74° N 20:00:03 74° N 20:05:13 10° NNE
Cosmos 2154 Rocket 4.2 20:05:01 57° ENE 20:05:01 57° ENE 20:10:19 10° NNE
Cosmos 2074 Rocket 4.1 20:09:51 65° WSW 20:10:15 67° W 20:16:27 10° N
ATLAS 2AS CENTAUR R/B 4.1 20:07:45 10° N 20:13:43 26° NE 20:15:15 24° ENE
ERS-1 Rocket 4.1 20:16:48 37° W 20:16:48 37° W 20:20:51 10° NNW
Cosmos 2237 Rocket 2.6 20:17:54 61° NW 20:17:54 61° NW 20:23:15 10° NNE
SPOT 5 4.2 20:23:12 36° WNW 20:23:12 36° WNW 20:26:53 10° NNW
ATLAS CENTAUR R/B 4.0 20:23:59 10° NNW 20:24:46 16° NNW 20:24:46 16° NNW
Atlas Centaur 2 3.5 20:30:55 10° W 20:34:39 37° W 20:34:39 37° W
USA 267 4.1 20:49:19 37° ENE 20:50:17 39° NE 20:56:17 10° NNW
MOS 1-B Rocket 4.4 20:49:41 10° N 20:56:07 69° NNW 20:56:07 69° NNW
Cosmos 2278 Rocket 3.3 20:55:10 10° NNW 20:58:50 40° NW 20:58:50 40° NW
SL-16 R/B 3.3 21:04:44 40° N 21:04:44 40° N 21:08:18 10° NNE
Cosmos 1943 Rocket 4.5 21:01:14 10° NNE 21:04:00 14° NE 21:04:00 14° NE
Terra 4.5 21:14:57 12° WNW 21:14:57 12° WNW 21:15:42 10° WNW
NOSS 3-4 (A) 4.1 21:30:00 10° NNW 21:36:04 65° NW 21:36:04 65° NW
NOSS 3-4 (C) 4.1 21:30:06 10° NNW 21:36:12 65° NW 21:36:12 65° NW
Cosmos 2369 Rocket 4.0 21:48:00 10° N 21:51:34 24° NE 21:51:34 24° NE
COSMOS 2455 4.0 21:54:16 10° N 21:58:41 37° NNE 21:58:41 37° NNE
ATLAS 2AS CENTAUR R/B 3.7 21:58:03 10° NW 22:02:39 38° WNW 22:02:39 38° WNW
CZ-4C R/B 4.2 22:19:45 10° N 22:26:34 35° NE 22:30:40 23° E
Cosmos 1943 4.5 22:41:16 36° NNW 22:41:16 36° NNW 22:44:52 10° N
Cosmos 1943 Rocket 3.7 22:42:47 10° NNW 22:45:29 29° NW 22:45:29 29° NW
Lacrosse 5 rocket 4.4 22:58:57 10° N 22:59:15 11° N 22:59:15 11° N
SeaSat 1 3.8 23:05:13 10° NNE 23:08:09 36° NNE 23:08:09 36° NNE
Centaur D-1A AC-31 4.3 13:49:53 10° SSW 23:24:12 71° SSW 23:32:49 10° ESE
Resurs 1-4 Rocket 2.8 23:19:53 10° NNE 23:23:48 50° NNE 23:23:48 50° NNE
ADEOS II 3.3 23:29:59 10° NE 23:34:19 33° E 23:34:19 33° E
Lacrosse 5 2.9 23:36:20 43° N 23:36:20 43° N 23:39:57 10° NNE
Cosmos 2369 Rocket 4.1 23:31:34 10° NW 23:33:18 19° NW 23:33:18 19° NW
IRS-1D 4.4 23:37:21 10° NNE 23:41:15 43° ENE 23:41:15 43° ENE
DELTA 2 R/B (1) 3.9 23:51:38 63° ENE 23:51:38 63° ENE 23:56:35 10° ESE
